Regional Weather Roundup
Issued by NWS Jackson, KY

Home | Current Version | Previous Version | Text Only | Print | Product List | Glossary Off
Versions: 1 2 3 4 5 6 7 8 9 10 11 12 13 14 15 16 17 18 19 20 21 22 23 24 25 26 27 28 29 30 31 32 33 34 35 36 37 38 39 40 41 42 43 44 45 46 47 48 49 50

000
ASUS43 KJKL 281710
RWRJKL

EAST KENTUCKY HOURLY WEATHER ROUNDUP
NATIONAL WEATHER SERVICE JACKSON KY
1200 PM EST SUN DEC 28 2014

NOTE: "FAIR" INDICATES FEW OR NO CLOUDS BELOW 12,000 FEET WITH
NO SIGNIFICANT WEATHER AND/OR OBSTRUCTIONS TO VISIBILITY.

* THESE REPORTS ARE NOT UNDER NWS QUALITY CONTROL AND MAY NOT
  REPORT WEATHER SUCH AS PRECIPITATION AND FOG.

KYZ079-080-083-085-087-088-110-112-115-119-120-281800
...EASTERN KENTUCKY...

CITY           SKY/WX    TMP DP  RH WIND       PRES   REMARKS
JACKSON        LGT RAIN  42  40  92 VRB6      30.09R
LONDON         LGT RAIN  45  40  82 N9        30.10F
SOMERSET*      DRIZZLE   41  41 100 N5        30.12F
MONTICELLO*    LGT RAIN  44  43  97 N6        30.14F
MIDDLESBORO*   DRIZZLE   49  49  99 CALM      30.08F
HARLAN APT*    CLOUDY    46  46 100 CALM      30.07F
BLACK MTN*       N/A     43  43 100 W2          N/A
PIKEVILLE APT* DRIZZLE   45  45 100 CALM      30.06F
BIG SANDY*     RAIN      47  47  99 CALM      30.05F
MOREHEAD APT*  LGT RAIN  39  39 100 N3        30.12F VSB 3/4
$$

KYZ035-036-041-042-044-050-067-078-099-281800
...CENTRAL KENTUCKY...

CITY           SKY/WX    TMP DP  RH WIND       PRES   REMARKS
MT STERLING*   CLOUDY    37  36  93 N5        30.13F WCI  34
FLEMING/MASON* LGT RAIN  36  36 100 NW5       30.13F WCI  32
DANVILLE*      CLOUDY    37  36  93 N7        30.13F WCI  32
RICHMOND*      CLOUDY    39  37  93 NW6       30.11F WCI  35
LEXINGTON      CLOUDY    37  37 100 NW6       30.14F FOG     WCI  32
FRANKFORT      CLOUDY    36  35  96 NW7       30.13F WCI  30
$$

KYZ091>093-OHZ055-061-077-WVZ005-015-034-035-042-281800
...SOUTHERN OHIO/WEST VIRGINIA...

CITY           SKY/WX    TMP DP  RH WIND       PRES   REMARKS
COVINGTON      CLOUDY    35  27  72 N9        30.15S WCI  28
COLUMBUS       CLOUDY    37  36  96 NW7       30.11F WCI  32
DAYTON         CLOUDY    36  31  82 NW7       30.14F WCI  30
WILMINGTON     CLOUDY    35  28  75 NW7       30.12F WCI  29
HUNTINGTON     LGT RAIN  40  40 100 NW8       30.10F FOG     WCI  34
CHARLESTON     LGT RAIN  46  44  93 N5        30.05F FOG
PINEVILLE*     LGT RAIN  48  48 100 MISG      30.10F
BECKLEY        LGT RAIN  45  43  93 W8        30.04F
BLUEFIELD      LGT RAIN  47  44  90 NW8       30.04F FOG
$$

VAZ002-007-008-TNZ017-027-036-066-071-281800
...SOUTHWEST VIRGINIA/EAST TENNESSEE...

CITY           SKY/WX    TMP DP  RH WIND       PRES   REMARKS
WISE*          RAIN      46  46 100 CALM      30.07F
JONESVILLE*    LGT RAIN  46  46 100 CALM      30.09F
ABINGDON*      RAIN      47  45  93 CALM      30.07S
BRISTOL        RAIN      47  45  93 S5        30.09R FOG
KNOXVILLE      LGT RAIN  48  48 100 CALM      30.09F FOG
OAK RIDGE      LGT RAIN  53  51  93 CALM      30.09F
CROSSVILLE     LGT RAIN  50  46  86 CALM      30.08F
NASHVILLE      LGT RAIN  41  39  93 N8        30.17S
$$

...KEY TO REMARKS...
VSB - VISIBILITY IN MILES
WCI - WIND CHILL INDEX
HX  - HEAT INDEX

$$


USA.gov is the U.S. government's official web portal to all federal, state and local government web resources and services.